ASA591 KSFO-KSEA

Flight info

Callsign ASA591
Flight time 1h 39m
Altitude 36000
Route TRUKN2 DEDHD RBL LMT HAWKZ8
Aircraft B38M/M-SDE1FGHILORVWXY/HB1

Departure

Time 2026-05-05 03:29
Airport San Francisco International Airport (KSFO)

Arrival

Time 2026-05-05 05:08
Airport Seattle–Tacoma International Airport (KSEA)
Time Latitude Longitude Altitude Speed Heading
2026-05-05 03:03 37.61199 -122.38431 26 ft 0 kts 298°
2026-05-05 03:16 37.61197 -122.38427 24 ft 2 kts 298°
2026-05-05 03:17 37.61189 -122.38407 24 ft 2 kts 298°
2026-05-05 03:17 37.61178 -122.38389 24 ft 3 kts 334°
2026-05-05 03:17 37.61161 -122.38386 28 ft 3 kts 14°
2026-05-05 03:17 37.61148 -122.38392 24 ft 1 kts 27°
2026-05-05 03:18 37.61134 -122.38401 24 ft 2 kts 27°
2026-05-05 03:18 37.61128 -122.38405 24 ft 0 kts 27°
2026-05-05 03:21 37.61140 -122.38397 25 ft 5 kts 27°
2026-05-05 03:22 37.61201 -122.38348 24 ft 16 kts 50°
2026-05-05 03:22 37.61254 -122.38238 24 ft 17 kts 31°
2026-05-05 03:22 37.61369 -122.38161 24 ft 19 kts 27°
2026-05-05 03:22 37.61403 -122.38084 24 ft 10 kts 115°
2026-05-05 03:23 37.61368 -122.38000 24 ft 12 kts 118°
2026-05-05 03:23 37.61319 -122.37884 24 ft 17 kts 117°
2026-05-05 03:23 37.61254 -122.37729 24 ft 23 kts 117°
2026-05-05 03:23 37.61234 -122.37566 26 ft 18 kts 71°
2026-05-05 03:24 37.61316 -122.37459 25 ft 16 kts 27°
2026-05-05 03:24 37.61420 -122.37390 24 ft 18 kts 27°
2026-05-05 03:24 37.61528 -122.37299 26 ft 20 kts 51°
2026-05-05 03:24 37.61556 -122.37129 25 ft 21 kts 108°
2026-05-05 03:25 37.61490 -122.36968 28 ft 14 kts 120°
2026-05-05 03:25 37.61432 -122.36876 28 ft 14 kts 133°
2026-05-05 03:25 37.61363 -122.36772 27 ft 17 kts 122°
2026-05-05 03:25 37.61305 -122.36637 27 ft 18 kts 118°
2026-05-05 03:26 37.61242 -122.36486 25 ft 20 kts 118°
2026-05-05 03:26 37.61172 -122.36321 28 ft 22 kts 118°
2026-05-05 03:26 37.61122 -122.36204 25 ft 22 kts 118°
2026-05-05 03:26 37.61109 -122.36104 24 ft 10 kts 45°
2026-05-05 03:27 37.61158 -122.36070 26 ft 2 kts 28°
2026-05-05 03:27 37.61178 -122.36056 26 ft 5 kts 28°
2026-05-05 03:27 37.61216 -122.36030 25 ft 8 kts 28°
2026-05-05 03:27 37.61256 -122.36038 26 ft 6 kts 296°
2026-05-05 03:28 37.61309 -122.36171 28 ft 45 kts 297°
2026-05-05 03:28 37.61575 -122.36799 24 ft 115 kts 298°
2026-05-05 03:28 37.62045 -122.37915 26 ft 171 kts 298°
2026-05-05 03:28 37.62646 -122.39339 488 ft 189 kts 298°
2026-05-05 03:29 37.63288 -122.40800 1381 ft 190 kts 305°
2026-05-05 03:29 37.64316 -122.41931 2038 ft 212 kts 338°
2026-05-05 03:29 37.65850 -122.41969 2616 ft 236 kts 19°
2026-05-05 03:29 37.67186 -122.40734 3517 ft 242 kts 42°
2026-05-05 03:30 37.68525 -122.39370 4381 ft 250 kts 33°
2026-05-05 03:30 37.70105 -122.38392 5239 ft 256 kts 13°
2026-05-05 03:30 37.71881 -122.37948 6109 ft 265 kts
2026-05-05 03:30 37.73694 -122.37472 7051 ft 269 kts 12°
2026-05-05 03:31 37.75535 -122.36854 7898 ft 277 kts 15°
2026-05-05 03:31 37.77391 -122.36151 8819 ft 281 kts 17°
2026-05-05 03:31 37.79271 -122.35387 9686 ft 286 kts 18°
2026-05-05 03:31 37.81176 -122.34583 10498 ft 294 kts 18°
2026-05-05 03:32 37.83175 -122.33722 10946 ft 314 kts 18°
2026-05-05 03:32 37.85305 -122.32790 11320 ft 333 kts 19°
2026-05-05 03:32 37.87532 -122.31803 11791 ft 348 kts 19°
2026-05-05 03:32 37.89823 -122.30751 12570 ft 350 kts 19°
2026-05-05 03:33 37.92130 -122.29711 13370 ft 354 kts 19°
2026-05-05 03:33 37.94457 -122.28670 14158 ft 356 kts 19°
2026-05-05 03:33 37.96803 -122.27627 14945 ft 359 kts 20°
2026-05-05 03:33 37.99168 -122.26578 15705 ft 361 kts 20°
2026-05-05 03:34 38.01552 -122.25522 16422 ft 364 kts 20°
2026-05-05 03:34 38.03951 -122.24459 17160 ft 366 kts 21°
2026-05-05 03:34 38.06364 -122.23389 17849 ft 369 kts 21°
2026-05-05 03:34 38.08796 -122.22310 18504 ft 371 kts 21°
2026-05-05 03:35 38.11244 -122.21223 18921 ft 377 kts 21°
2026-05-05 03:35 38.13713 -122.20126 19019 ft 375 kts 21°
2026-05-05 03:35 38.16185 -122.19026 19453 ft 376 kts 22°
2026-05-05 03:35 38.18662 -122.17924 20096 ft 378 kts 22°
2026-05-05 03:36 38.21156 -122.16813 20666 ft 381 kts 22°
2026-05-05 03:36 38.23671 -122.15692 21247 ft 384 kts 22°
2026-05-05 03:36 38.26170 -122.14577 21786 ft 387 kts 22°
2026-05-05 03:36 38.28718 -122.13440 22350 ft 389 kts 22°
2026-05-05 03:37 38.31282 -122.12295 22871 ft 392 kts 22°
2026-05-05 03:37 38.33966 -122.11520 23378 ft 402 kts
2026-05-05 03:37 38.36784 -122.11594 23937 ft 406 kts
2026-05-05 03:37 38.39620 -122.11739 24340 ft 410 kts
2026-05-05 03:38 38.42486 -122.11908 24851 ft 412 kts
2026-05-05 03:38 38.45357 -122.12094 25318 ft 415 kts
2026-05-05 03:38 38.48242 -122.12288 25821 ft 415 kts
2026-05-05 03:38 38.51131 -122.12484 26262 ft 417 kts
2026-05-05 03:39 38.54038 -122.12684 26703 ft 419 kts
2026-05-05 03:39 38.56951 -122.12885 27079 ft 420 kts
2026-05-05 03:39 38.59865 -122.13086 27465 ft 421 kts
2026-05-05 03:39 38.62796 -122.13286 27856 ft 424 kts
2026-05-05 03:40 38.65749 -122.13490 28237 ft 426 kts
2026-05-05 03:40 38.68715 -122.13696 28617 ft 428 kts
2026-05-05 03:40 38.71691 -122.13901 28996 ft 429 kts
2026-05-05 03:40 38.74684 -122.14107 29293 ft 432 kts
2026-05-05 03:41 38.77692 -122.14315 29662 ft 433 kts
2026-05-05 03:41 38.80709 -122.14524 29946 ft 436 kts
2026-05-05 03:41 38.83744 -122.14734 30237 ft 438 kts
2026-05-05 03:41 38.86784 -122.14946 30630 ft 438 kts
2026-05-05 03:42 38.89829 -122.15157 30999 ft 439 kts
2026-05-05 03:42 38.92887 -122.15370 31315 ft 441 kts
2026-05-05 03:42 38.95951 -122.15582 31682 ft 441 kts
2026-05-05 03:42 38.99016 -122.15796 32046 ft 442 kts
2026-05-05 03:43 39.02082 -122.16006 32426 ft 441 kts
2026-05-05 03:43 39.05147 -122.16221 32785 ft 442 kts
2026-05-05 03:43 39.08207 -122.16435 33159 ft 441 kts
2026-05-05 03:43 39.11267 -122.16649 33513 ft 441 kts
2026-05-05 03:44 39.14327 -122.16863 33901 ft 439 kts
2026-05-05 03:44 39.17378 -122.17077 34273 ft 439 kts
2026-05-05 03:44 39.20427 -122.17290 34604 ft 438 kts
2026-05-05 03:44 39.23475 -122.17504 34915 ft 439 kts
2026-05-05 03:45 39.26480 -122.17714 35217 ft 439 kts
2026-05-05 03:45 39.29573 -122.17931 35496 ft 439 kts
2026-05-05 03:45 39.32585 -122.18142 35792 ft 439 kts
2026-05-05 03:45 39.35624 -122.18356 36020 ft 440 kts
2026-05-05 03:46 39.41737 -122.18786 36034 ft 439 kts
2026-05-05 03:46 39.47828 -122.19215 36036 ft 438 kts
2026-05-05 03:47 39.53915 -122.19646 36033 ft 438 kts
2026-05-05 03:47 39.59987 -122.20075 36024 ft 438 kts
2026-05-05 03:48 39.66067 -122.20506 36016 ft 437 kts
2026-05-05 03:48 39.72135 -122.20937 36016 ft 437 kts
2026-05-05 03:49 39.78205 -122.21369 36010 ft 437 kts
2026-05-05 03:49 39.84258 -122.21800 36010 ft 437 kts
2026-05-05 03:50 39.90324 -122.22233 36001 ft 436 kts
2026-05-05 03:50 39.96389 -122.22666 35998 ft 436 kts
2026-05-05 03:51 40.02460 -122.23101 35994 ft 436 kts
2026-05-05 03:51 40.08511 -122.23531 35989 ft 435 kts
2026-05-05 03:52 40.11484 -122.23205 35985 ft 425 kts 15°
2026-05-05 03:52 40.14403 -122.22493 35972 ft 429 kts 14°
2026-05-05 03:52 40.20228 -122.21137 35995 ft 428 kts 14°
2026-05-05 03:53 40.26128 -122.19726 35987 ft 428 kts 14°
2026-05-05 03:53 40.31985 -122.18314 35987 ft 427 kts 14°
2026-05-05 03:54 40.37779 -122.16914 35987 ft 427 kts 14°
2026-05-05 03:54 40.43615 -122.15501 35994 ft 426 kts 14°
2026-05-05 03:55 40.49445 -122.14086 35993 ft 426 kts 14°
2026-05-05 03:55 40.55269 -122.12671 35995 ft 425 kts 15°
2026-05-05 03:56 40.61075 -122.11257 35986 ft 424 kts 15°
2026-05-05 03:56 40.66876 -122.09841 35988 ft 423 kts 14°
2026-05-05 03:57 40.72662 -122.08428 35989 ft 423 kts 15°
2026-05-05 03:57 40.78450 -122.07011 35981 ft 423 kts 15°
2026-05-05 03:58 40.84214 -122.05595 35997 ft 421 kts 15°
2026-05-05 03:58 40.89974 -122.04181 35966 ft 420 kts 15°
2026-05-05 03:59 40.95732 -122.02765 35974 ft 420 kts 15°
2026-05-05 03:59 41.01476 -122.01349 35981 ft 420 kts 15°
2026-05-05 04:00 41.07201 -121.99935 35979 ft 418 kts 15°
2026-05-05 04:00 41.12933 -121.98518 35973 ft 420 kts 15°
2026-05-05 04:01 41.18639 -121.97103 35975 ft 419 kts 15°
2026-05-05 04:01 41.24378 -121.95678 35970 ft 419 kts 15°
2026-05-05 04:02 41.30093 -121.94257 35970 ft 417 kts 15°
2026-05-05 04:02 41.35784 -121.92839 35965 ft 417 kts 15°
2026-05-05 04:03 41.41477 -121.91417 35955 ft 416 kts 15°
2026-05-05 04:03 41.47163 -121.89996 35953 ft 415 kts 15°
2026-05-05 04:04 41.52838 -121.88574 35949 ft 415 kts 15°
2026-05-05 04:04 41.58500 -121.87153 35931 ft 414 kts 15°
2026-05-05 04:05 41.64155 -121.85731 35936 ft 414 kts 15°
2026-05-05 04:05 41.69813 -121.84306 35924 ft 414 kts 15°
2026-05-05 04:06 41.75465 -121.82880 35922 ft 413 kts 15°
2026-05-05 04:06 41.81096 -121.81457 35916 ft 413 kts 15°
2026-05-05 04:07 41.86741 -121.80028 35910 ft 413 kts 15°
2026-05-05 04:07 41.92380 -121.78597 35914 ft 413 kts 15°
2026-05-05 04:08 41.97993 -121.77171 35915 ft 413 kts 15°
2026-05-05 04:08 42.03638 -121.75735 35918 ft 412 kts 15°
2026-05-05 04:09 42.09254 -121.74304 35922 ft 411 kts 15°
2026-05-05 04:09 42.14911 -121.73072 35903 ft 417 kts
2026-05-05 04:10 42.20745 -121.74064 35896 ft 426 kts 358°
2026-05-05 04:10 42.26599 -121.75321 35916 ft 427 kts 357°
2026-05-05 04:11 42.32448 -121.76640 35893 ft 426 kts 356°
2026-05-05 04:11 42.38291 -121.77969 35931 ft 427 kts 356°
2026-05-05 04:12 42.44139 -121.79302 35917 ft 426 kts 356°
2026-05-05 04:12 42.48985 -121.80410 35928 ft 425 kts 356°
2026-05-05 04:13 42.54814 -121.81744 35929 ft 425 kts 356°
2026-05-05 04:13 42.60648 -121.83082 35928 ft 425 kts 356°
2026-05-05 04:14 42.66471 -121.84419 35927 ft 424 kts 356°
2026-05-05 04:14 42.72292 -121.85759 35940 ft 424 kts 356°
2026-05-05 04:15 42.78109 -121.87099 35934 ft 424 kts 356°
2026-05-05 04:15 42.83906 -121.88439 35941 ft 423 kts 356°
2026-05-05 04:16 42.89703 -121.89781 35942 ft 422 kts 356°
2026-05-05 04:16 42.95492 -121.91124 35955 ft 422 kts 356°
2026-05-05 04:17 43.01277 -121.92468 35947 ft 421 kts 356°
2026-05-05 04:17 43.07011 -121.93803 35953 ft 421 kts 356°
2026-05-05 04:18 43.12782 -121.95149 35956 ft 421 kts 356°
2026-05-05 04:18 43.18555 -121.96497 35964 ft 421 kts 356°
2026-05-05 04:19 43.24313 -121.97846 35965 ft 419 kts 356°
2026-05-05 04:19 43.30056 -121.99193 35981 ft 420 kts 356°
2026-05-05 04:20 43.35800 -122.00543 35972 ft 419 kts 356°
2026-05-05 04:20 43.41549 -122.01898 35978 ft 418 kts 356°
2026-05-05 04:21 43.47288 -122.03252 35980 ft 418 kts 356°
2026-05-05 04:21 43.53004 -122.04603 36000 ft 418 kts 356°
2026-05-05 04:22 43.58733 -122.05961 35996 ft 417 kts 356°
2026-05-05 04:22 43.64458 -122.07319 36001 ft 417 kts 356°
2026-05-05 04:23 43.70181 -122.08680 35996 ft 416 kts 356°
2026-05-05 04:23 43.75892 -122.10041 36004 ft 417 kts 356°
2026-05-05 04:24 43.81601 -122.11405 36002 ft 417 kts 356°
2026-05-05 04:25 43.90130 -122.13447 36001 ft 417 kts 356°
2026-05-05 04:25 43.95835 -122.14813 35965 ft 415 kts 356°
2026-05-05 04:26 44.01540 -122.16187 35997 ft 416 kts 356°
2026-05-05 04:26 44.07249 -122.17559 35990 ft 417 kts 356°
2026-05-05 04:27 44.12962 -122.18938 35974 ft 416 kts 356°
2026-05-05 04:27 44.18666 -122.20317 35977 ft 416 kts 356°
2026-05-05 04:28 44.24358 -122.21697 35975 ft 415 kts 356°
2026-05-05 04:28 44.30052 -122.23078 35987 ft 416 kts 356°
2026-05-05 04:29 44.35757 -122.24465 35995 ft 416 kts 355°
2026-05-05 04:29 44.41463 -122.25856 35967 ft 416 kts 355°
2026-05-05 04:30 44.47168 -122.27250 35972 ft 416 kts 355°
2026-05-05 04:30 44.52854 -122.28641 35958 ft 416 kts 355°
2026-05-05 04:31 44.58521 -122.30028 35966 ft 416 kts 355°
2026-05-05 04:31 44.64223 -122.31431 35983 ft 416 kts 355°
2026-05-05 04:32 44.69917 -122.32833 35995 ft 416 kts 355°
2026-05-05 04:32 44.75615 -122.34237 35955 ft 415 kts 355°
2026-05-05 04:33 44.81297 -122.35640 35969 ft 416 kts 355°
2026-05-05 04:33 44.86996 -122.37051 35926 ft 414 kts 355°
2026-05-05 04:34 44.92678 -122.38462 35957 ft 416 kts 355°
2026-05-05 04:34 44.98352 -122.39873 35945 ft 413 kts 355°
2026-05-05 04:35 45.04010 -122.41281 35957 ft 413 kts 355°
2026-05-05 04:35 45.09674 -122.42694 35956 ft 413 kts 354°
2026-05-05 04:36 45.15328 -122.44109 35954 ft 412 kts 354°
2026-05-05 04:36 45.20975 -122.45523 35948 ft 412 kts 354°
2026-05-05 04:37 45.26618 -122.46941 35951 ft 412 kts 354°
2026-05-05 04:37 45.32254 -122.48360 35940 ft 411 kts 354°
2026-05-05 04:38 45.37854 -122.49771 35944 ft 412 kts 354°
2026-05-05 04:38 45.43492 -122.51196 35934 ft 411 kts 354°
2026-05-05 04:39 45.49118 -122.52621 35934 ft 411 kts 354°
2026-05-05 04:39 45.54744 -122.54047 35935 ft 411 kts 354°
2026-05-05 04:40 45.60369 -122.55477 35930 ft 411 kts 354°
2026-05-05 04:40 45.65995 -122.56910 35935 ft 411 kts 354°
2026-05-05 04:41 45.71623 -122.58346 35938 ft 410 kts 354°
2026-05-05 04:41 45.77228 -122.59746 35941 ft 409 kts 354°
2026-05-05 04:42 45.82837 -122.61132 35952 ft 409 kts 354°
2026-05-05 04:42 45.88446 -122.62521 35953 ft 409 kts 354°
2026-05-05 04:43 45.94057 -122.63914 34985 ft 415 kts 354°
2026-05-05 04:43 45.96916 -122.64626 34247 ft 416 kts 354°
2026-05-05 04:43 45.99744 -122.65330 33572 ft 414 kts 354°
2026-05-05 04:43 46.02586 -122.66039 32803 ft 415 kts 353°
2026-05-05 04:44 46.05438 -122.66751 32009 ft 416 kts 353°
2026-05-05 04:44 46.08262 -122.67455 31200 ft 418 kts 353°
2026-05-05 04:44 46.11142 -122.68037 30320 ft 419 kts 354°
2026-05-05 04:44 46.14046 -122.68604 29268 ft 424 kts 354°
2026-05-05 04:45 46.16996 -122.69196 28268 ft 430 kts 354°
2026-05-05 04:45 46.19941 -122.69788 27693 ft 424 kts 354°
2026-05-05 04:45 46.22845 -122.70373 27087 ft 419 kts 354°
2026-05-05 04:45 46.25703 -122.70950 26475 ft 415 kts 354°
2026-05-05 04:46 46.28552 -122.71525 25865 ft 411 kts 354°
2026-05-05 04:46 46.31370 -122.72085 25245 ft 407 kts 355°
2026-05-05 04:46 46.34188 -122.72201 24560 ft 403 kts
2026-05-05 04:46 46.37003 -122.72257 23998 ft 406 kts 360°
2026-05-05 04:47 46.39840 -122.72343 23404 ft 408 kts 360°
2026-05-05 04:47 46.42676 -122.72447 22807 ft 407 kts 359°
2026-05-05 04:47 46.45499 -122.72559 22211 ft 404 kts 359°
2026-05-05 04:47 46.48302 -122.72671 21616 ft 402 kts 359°
2026-05-05 04:48 46.51081 -122.72785 21026 ft 400 kts 359°
2026-05-05 04:48 46.53847 -122.72898 20440 ft 397 kts 359°
2026-05-05 04:48 46.56596 -122.73011 19856 ft 394 kts 359°
2026-05-05 04:48 46.59328 -122.73123 19278 ft 392 kts 359°
2026-05-05 04:49 46.62043 -122.73234 18755 ft 389 kts 359°
2026-05-05 04:49 46.64722 -122.73345 18499 ft 380 kts 359°
2026-05-05 04:49 46.67324 -122.73451 18274 ft 369 kts 359°
2026-05-05 04:49 46.69855 -122.73555 18078 ft 358 kts 359°
2026-05-05 04:50 46.72308 -122.73656 17898 ft 348 kts 358°
2026-05-05 04:50 46.74689 -122.73755 17737 ft 338 kts 358°
2026-05-05 04:50 46.77010 -122.73723 17419 ft 333 kts
2026-05-05 04:50 46.79186 -122.72630 17045 ft 331 kts 28°
2026-05-05 04:51 46.81042 -122.70668 16713 ft 328 kts 36°
2026-05-05 04:51 46.82837 -122.68627 16377 ft 325 kts 36°
2026-05-05 04:51 46.84611 -122.66603 16014 ft 322 kts 35°
2026-05-05 04:51 46.86380 -122.64620 15696 ft 318 kts 36°
2026-05-05 04:52 46.88118 -122.62654 15453 ft 312 kts 36°
2026-05-05 04:52 46.89804 -122.60735 15320 ft 303 kts 36°
2026-05-05 04:52 46.91440 -122.58868 15165 ft 294 kts 36°
2026-05-05 04:52 46.93031 -122.57065 15011 ft 286 kts 33°
2026-05-05 04:53 46.94831 -122.55851 14615 ft 288 kts 15°
2026-05-05 04:53 46.96753 -122.54980 14384 ft 292 kts 17°
2026-05-05 04:53 46.98715 -122.54089 14145 ft 296 kts 16°
2026-05-05 04:53 47.00686 -122.53209 13853 ft 296 kts 16°
2026-05-05 04:54 47.02650 -122.52341 13546 ft 293 kts 16°
2026-05-05 04:54 47.04597 -122.51485 13239 ft 291 kts 16°
2026-05-05 04:54 47.06541 -122.50633 12933 ft 293 kts 16°
2026-05-05 04:54 47.08513 -122.49898 12607 ft 293 kts
2026-05-05 04:55 47.10540 -122.49573 12273 ft 293 kts
2026-05-05 04:55 47.12567 -122.49220 11977 ft 293 kts
2026-05-05 04:55 47.14588 -122.48843 11679 ft 293 kts
2026-05-05 04:55 47.16610 -122.48455 11374 ft 293 kts
2026-05-05 04:56 47.18626 -122.48064 11070 ft 292 kts
2026-05-05 04:56 47.20643 -122.47759 10723 ft 293 kts
2026-05-05 04:56 47.22665 -122.47457 10404 ft 290 kts
2026-05-05 04:56 47.24633 -122.47159 10098 ft 278 kts
2026-05-05 04:57 47.26544 -122.46868 9836 ft 276 kts
2026-05-05 04:57 47.28429 -122.46579 9552 ft 277 kts
2026-05-05 04:57 47.30348 -122.46284 9253 ft 277 kts
2026-05-05 04:57 47.32262 -122.45988 8973 ft 276 kts
2026-05-05 04:58 47.34165 -122.45695 8682 ft 274 kts
2026-05-05 04:58 47.36055 -122.45517 8380 ft 271 kts 359°
2026-05-05 04:58 47.37939 -122.45520 8084 ft 269 kts 359°
2026-05-05 04:58 47.39828 -122.45508 7807 ft 267 kts 359°
2026-05-05 04:59 47.41674 -122.45508 7504 ft 264 kts 359°
2026-05-05 04:59 47.43508 -122.45521 7230 ft 262 kts 359°
2026-05-05 04:59 47.45319 -122.45528 6967 ft 260 kts 359°
2026-05-05 04:59 47.47117 -122.45532 6697 ft 257 kts 359°
2026-05-05 05:00 47.48892 -122.45534 6458 ft 253 kts 359°
2026-05-05 05:00 47.50629 -122.45536 6216 ft 247 kts 359°
2026-05-05 05:00 47.52308 -122.45561 5993 ft 241 kts 358°
2026-05-05 05:00 47.53952 -122.45600 5838 ft 232 kts 358°
2026-05-05 05:01 47.55547 -122.45638 5725 ft 229 kts 358°
2026-05-05 05:01 47.57147 -122.45676 5643 ft 230 kts 358°
2026-05-05 05:01 47.58227 -122.45701 5582 ft 228 kts 358°
2026-05-05 05:01 47.60242 -122.45748 5449 ft 210 kts 358°
2026-05-05 05:02 47.61681 -122.45783 5338 ft 207 kts 358°
2026-05-05 05:02 47.63125 -122.45796 5056 ft 209 kts
2026-05-05 05:02 47.64079 -122.45429 4734 ft 214 kts 26°
2026-05-05 05:02 47.65162 -122.43919 4248 ft 220 kts 60°
2026-05-05 05:03 47.65530 -122.41715 3773 ft 225 kts 89°
2026-05-05 05:03 47.65442 -122.39381 3313 ft 228 kts 95°
2026-05-05 05:03 47.65299 -122.37066 3053 ft 220 kts 95°
2026-05-05 05:03 47.65163 -122.34902 2998 ft 200 kts 95°
2026-05-05 05:04 47.64720 -122.33025 2997 ft 194 kts 127°
2026-05-05 05:04 47.63657 -122.31853 3011 ft 193 kts 162°
2026-05-05 05:04 47.62335 -122.31616 3049 ft 192 kts 181°
2026-05-05 05:04 47.60995 -122.31649 3098 ft 192 kts 182°
2026-05-05 05:05 47.59726 -122.31672 2975 ft 177 kts 181°
2026-05-05 05:05 47.58515 -122.31693 2757 ft 172 kts 182°
2026-05-05 05:05 47.57345 -122.31703 2551 ft 170 kts 181°
2026-05-05 05:05 47.56173 -122.31711 2340 ft 168 kts 181°
2026-05-05 05:06 47.55013 -122.31719 2122 ft 166 kts 181°
2026-05-05 05:06 47.53862 -122.31728 1901 ft 163 kts 181°
2026-05-05 05:06 47.52781 -122.31737 1712 ft 151 kts 181°
2026-05-05 05:06 47.51750 -122.31745 1503 ft 147 kts 181°
2026-05-05 05:07 47.50735 -122.31754 1311 ft 145 kts 181°
2026-05-05 05:07 47.49738 -122.31761 1111 ft 144 kts 181°
2026-05-05 05:07 47.48773 -122.31774 938 ft 141 kts 181°
2026-05-05 05:07 47.47795 -122.31785 748 ft 140 kts 180°
2026-05-05 05:08 47.46819 -122.31787 553 ft 140 kts 181°
2026-05-05 05:08 47.45860 -122.31793 418 ft 131 kts 180°
2026-05-05 05:08 47.45198 -122.31797 394 ft 53 kts 180°
2026-05-05 05:08 47.44895 -122.31747 392 ft 36 kts 160°
2026-05-05 05:09 47.44710 -122.31588 386 ft 28 kts 138°
2026-05-05 05:09 47.44646 -122.31352 393 ft 18 kts 89°
2026-05-05 05:09 47.44641 -122.31174 395 ft 18 kts 104°
2026-05-05 05:09 47.44546 -122.31016 393 ft 26 kts 150°
2026-05-05 05:10 47.44396 -122.30890 392 ft 24 kts 144°
2026-05-05 05:10 47.44348 -122.30730 393 ft 15 kts 90°
2026-05-05 05:10 47.44350 -122.30572 396 ft 12 kts 75°
2026-05-05 05:10 47.44429 -122.30542 398 ft 16 kts
2026-05-05 05:11 47.44566 -122.30541 402 ft 22 kts
2026-05-05 05:11 47.44718 -122.30540 407 ft 22 kts 360°
2026-05-05 05:11 47.44809 -122.30506 410 ft 9 kts 71°
2026-05-05 05:11 47.44788 -122.30422 406 ft 12 kts 131°
2026-05-05 05:12 47.44712 -122.30291 408 ft 21 kts 130°
2026-05-05 05:12 47.44684 -122.30115 407 ft 17 kts 69°
2026-05-05 05:12 47.44765 -122.29998 410 ft 16 kts 22°
2026-05-05 05:12 47.44870 -122.30006 408 ft 7 kts 326°
2026-05-05 05:13 47.44885 -122.30021 408 ft 4 kts 322°
2026-05-05 05:13 47.44909 -122.30054 410 ft 5 kts 313°
2026-05-05 05:13 47.44922 -122.30110 410 ft 7 kts 249°
2026-05-05 05:13 47.44891 -122.30156 409 ft 3 kts 221°
2026-05-05 05:14 47.44887 -122.30160 412 ft 0 kts 221°